| time (UTC) | temp F | wind direction | speed MPH | gust MPH | rain 1hr in | rain 24hr in | rain mn in | humidity % | barometer mb |
| 20260510124547 | 79 | 0 | 0.0 | 0.0 | 0.00 | 0.00 | 0.00 | 91 | 1012.2 |
| 20260510123042 | 78 | 0 | 0.0 | 0.0 | 0.00 | 0.00 | 0.00 | 92 | 1012.1 |
| 20260510121541 | 77 | 0 | 0.0 | 0.0 | 0.00 | 0.00 | 0.00 | 92 | 1012.1 |
| 20260510120040 | 77 | 0 | 0.0 | 0.0 | 0.00 | 0.00 | 0.00 | 92 | 1011.8 |
| 20260510114545 | 76 | 0 | 0.0 | 0.0 | 0.00 | 0.00 | 0.00 | 92 | 1011.6 |
| 20260510113045 | 76 | 0 | 0.0 | 0.0 | 0.00 | 0.00 | 0.00 | 92 | 1011.2 |
| 20260510111552 | 76 | 0 | 0.0 | 0.0 | 0.00 | 0.00 | 0.00 | 92 | 1010.8 |
| 20260510110040 | 77 | 0 | 0.0 | 0.0 | 0.00 | 0.00 | 0.00 | 92 | 1010.7 |
| 20260510104547 | 77 | 0 | 0.0 | 0.0 | 0.00 | 0.00 | 0.00 | 92 | 1010.2 |
| 20260510103037 | 78 | 0 | 0.0 | 2.0 | 0.00 | 0.00 | 0.00 | 92 | 1009.8 |
| 20260510101542 | 78 | 0 | 0.0 | 2.0 | 0.00 | 0.00 | 0.00 | 92 | 1009.6 |
| 20260510100042 | 78 | 0 | 0.0 | 5.0 | 0.00 | 0.00 | 0.00 | 92 | 1009.5 |
| 20260510094541 | 78 | 0 | 0.0 | 2.0 | 0.00 | 0.00 | 0.00 | 92 | 1009.4 |
| 20260510093054 | 78 | 0 | 0.0 | 3.0 | 0.00 | 0.00 | 0.00 | 92 | 1009.3 |
| 20260510091537 | 78 | 360 | 1.0 | 4.0 | 0.00 | 0.00 | 0.00 | 92 | 1009.1 |
| 20260510090048 | 78 | 0 | 0.0 | 4.0 | 0.00 | 0.00 | 0.00 | 92 | 1008.8 |
| 20260510084540 | 78 | 0 | 0.0 | 2.0 | 0.00 | 0.00 | 0.00 | 92 | 1009.0 |
| 20260510083046 | 78 | 0 | 0.0 | 4.0 | 0.00 | 0.00 | 0.00 | 93 | 1008.9 |
| 20260510081551 | 78 | 360 | 0.0 | 4.0 | 0.00 | 0.00 | 0.00 | 93 | 1009.0 |
| 20260510080037 | 78 | 0 | 0.0 | 3.0 | 0.00 | 0.00 | 0.00 | 94 | 1009.1 |
| 20260510074542 | 78 | 0 | 0.0 | 3.0 | 0.00 | 0.00 | 0.00 | 94 | 1009.1 |
| 20260510073052 | 77 | 0 | 0.0 | 3.0 | 0.00 | 0.00 | 0.00 | 94 | 1009.2 |
| 20260510071541 | 78 | 0 | 0.0 | 0.0 | 0.00 | 0.00 | 0.00 | 94 | 1009.3 |
| 20260510070042 | 78 | 0 | 0.0 | 0.0 | 0.00 | 0.00 | 0.00 | 94 | 1009.5 |
| 20260510064551 | 78 | 0 | 0.0 | 0.0 | 0.00 | 0.00 | 0.00 | 94 | 1009.6 |
| 20260510063043 | 78 | 0 | 0.0 | 0.0 | 0.00 | 0.00 | 0.00 | 94 | 1009.8 |
| 20260510061546 | 78 | 0 | 0.0 | 0.0 | 0.00 | 0.00 | 0.00 | 94 | 1009.9 |
| 20260510060048 | 78 | 0 | 0.0 | 0.0 | 0.00 | 0.00 | 0.00 | 94 | 1010.2 |
| 20260510054541 | 79 | 0 | 0.0 | 0.0 | 0.00 | 0.00 | 0.00 | 93 | 1010.2 |
| 20260510053050 | 79 | 0 | 0.0 | 0.0 | 0.00 | 0.00 | 0.00 | 93 | 1010.7 |
| 20260510051545 | 79 | 0 | 0.0 | 0.0 | 0.00 | 0.00 | 0.00 | 93 | 1010.9 |
| 20260510050038 | 79 | 0 | 0.0 | 0.0 | 0.00 | 0.00 | 0.00 | 92 | 1010.9 |
| 20260510044555 | 79 | 0 | 0.0 | 2.0 | 0.00 | 0.00 | 0.00 | 92 | 1010.8 |
| 20260510043052 | 79 | 0 | 0.0 | 1.0 | 0.00 | 0.00 | 0.00 | 92 | 1010.8 |
| 20260510041540 | 79 | 0 | 0.0 | 3.0 | 0.00 | 0.00 | 0.00 | 92 | 1011.0 |
| 20260510040045 | 79 | 0 | 0.0 | 0.0 | 0.00 | 0.00 | 0.00 | 91 | 1010.9 |
| 20260510034543 | 79 | 0 | 0.0 | 5.0 | 0.00 | 0.00 | 0.00 | 91 | 1010.8 |
| 20260510033055 | 79 | 0 | 0.0 | 2.0 | 0.00 | 0.00 | 0.00 | 91 | 1010.9 |
| 20260510031542 | 79 | 0 | 0.0 | 2.0 | 0.00 | 0.00 | 0.00 | 90 | 1010.7 |
| 20260510030045 | 79 | 0 | 0.0 | 2.0 | 0.00 | 0.00 | 0.00 | 90 | 1010.8 |
| 20260510024544 | 79 | 0 | 0.0 | 1.0 | 0.00 | 0.00 | 0.00 | 89 | 1010.6 |
| 20260510023037 | 79 | 0 | 0.0 | 3.0 | 0.00 | 0.00 | 0.00 | 88 | 1010.5 |
| 20260510021542 | 80 | 0 | 0.0 | 1.0 | 0.00 | 0.00 | 0.00 | 88 | 1010.4 |
| 20260510020042 | 80 | 0 | 0.0 | 4.0 | 0.00 | 0.00 | 0.00 | 87 | 1010.1 |
| 20260510014540 | 80 | 0 | 0.0 | 3.0 | 0.00 | 0.00 | 0.00 | 86 | 1010.1 |
| 20260510013040 | 80 | 0 | 0.0 | 2.0 | 0.00 | 0.00 | 0.00 | 87 | 1009.8 |
| 20260510011537 | 80 | 0 | 0.0 | 3.0 | 0.00 | 0.00 | 0.00 | 86 | 1009.6 |
| 20260510010036 | 80 | 360 | 0.0 | 5.0 | 0.00 | 0.00 | 0.00 | 85 | 1009.4 |
| 20260510004545 | 80 | 360 | 1.0 | 6.0 | 0.00 | 0.00 | 0.00 | 84 | 1009.2 |
| 20260510003049 | 80 | 360 | 2.0 | 6.0 | 0.00 | 0.00 | 0.00 | 84 | 1009.1 |
| 20260510001538 | 80 | 360 | 1.0 | 5.0 | 0.00 | 0.00 | 0.00 | 83 | 1008.9 |
| 20260510000049 | 80 | 360 | 1.0 | 9.0 | 0.00 | 0.00 | 0.00 | 83 | 1008.8 |
| 20260509234554 | 81 | 360 | 3.0 | 8.0 | 0.00 | 0.00 | 0.00 | 83 | 1008.7 |
| 20260509233038 | 81 | 360 | 2.0 | 5.0 | 0.00 | 0.00 | 0.00 | 83 | 1008.8 |
| 20260509231542 | 81 | 49 | 3.0 | 8.0 | 0.00 | 0.00 | 0.00 | 82 | 1008.8 |
| 20260509230040 | 82 | 241 | 4.0 | 10.0 | 0.00 | 0.00 | 0.00 | 82 | 1008.7 |
| 20260509224538 | 82 | 148 | 2.0 | 11.0 | 0.00 | 0.00 | 0.00 | 83 | 1008.7 |
| 20260509223044 | 82 | 259 | 4.0 | 9.0 | 0.00 | 0.00 | 0.00 | 81 | 1008.6 |
| 20260509221543 | 83 | 247 | 4.0 | 13.0 | 0.00 | 0.00 | 0.00 | 81 | 1008.4 |
| 20260509220043 | 83 | 227 | 6.0 | 12.0 | 0.00 | 0.00 | 0.00 | 80 | 1008.2 |
| 20260509214541 | 83 | 232 | 2.0 | 12.0 | 0.00 | 0.00 | 0.00 | 81 | 1008.3 |
| 20260509213038 | 83 | 202 | 4.0 | 11.0 | 0.00 | 0.00 | 0.00 | 81 | 1008.1 |
| 20260509211538 | 83 | 256 | 5.0 | 13.0 | 0.00 | 0.00 | 0.00 | 80 | 1008.0 |
| 20260509210038 | 84 | 294 | 4.0 | 12.0 | 0.00 | 0.00 | 0.00 | 79 | 1007.9 |
| 20260509204542 | 83 | 273 | 3.0 | 14.0 | 0.00 | 0.00 | 0.00 | 79 | 1007.9 |
| 20260509203039 | 84 | 257 | 6.0 | 14.0 | 0.00 | 0.00 | 0.00 | 76 | 1007.9 |
| 20260509201552 | 84 | 198 | 5.0 | 15.0 | 0.00 | 0.00 | 0.00 | 75 | 1008.1 |
| 20260509200052 | 84 | 202 | 5.0 | 13.0 | 0.00 | 0.00 | 0.00 | 73 | 1008.5 |
| 20260509194538 | 84 | 215 | 5.0 | 14.0 | 0.00 | 0.00 | 0.00 | 72 | 1008.6 |
| 20260509193042 | 85 | 225 | 6.0 | 11.0 | 0.00 | 0.00 | 0.00 | 70 | 1008.9 |
| 20260509191543 | 85 | 225 | 6.0 | 12.0 | 0.00 | 0.00 | 0.00 | 71 | 1008.9 |
| 20260509190042 | 85 | 205 | 5.0 | 12.0 | 0.00 | 0.00 | 0.00 | 73 | 1009.1 |
| 20260509184548 | 85 | 221 | 5.0 | 13.0 | 0.00 | 0.00 | 0.00 | 73 | 1009.3 |
| 20260509183042 | 86 | 258 | 5.0 | 12.0 | 0.00 | 0.00 | 0.00 | 71 | 1009.4 |
| 20260509181545 | 85 | 205 | 6.0 | 12.0 | 0.00 | 0.00 | 0.00 | 70 | 1009.5 |
| 20260509180046 | 85 | 260 | 5.0 | 12.0 | 0.00 | 0.00 | 0.00 | 71 | 1009.3 |
| 20260509174541 | 86 | 240 | 5.0 | 13.0 | 0.00 | 0.00 | 0.00 | 65 | 1009.4 |
| 20260509173049 | 87 | 236 | 6.0 | 13.0 | 0.00 | 0.00 | 0.00 | 65 | 1009.2 |
| 20260509171546 | 87 | 277 | 5.0 | 12.0 | 0.00 | 0.00 | 0.00 | 67 | 1009.3 |
| 20260509170040 | 87 | 246 | 3.0 | 10.0 | 0.00 | 0.00 | 0.00 | 68 | 1009.2 |
| 20260509164547 | 86 | 240 | 3.0 | 10.0 | 0.00 | 0.00 | 0.00 | 69 | 1009.1 |
| 20260509163045 | 86 | 220 | 3.0 | 7.0 | 0.00 | 0.00 | 0.00 | 70 | 1009.4 |
| 20260509161538 | 85 | 231 | 4.0 | 9.0 | 0.00 | 0.00 | 0.00 | 69 | 1009.5 |
| 20260509160039 | 85 | 240 | 3.0 | 9.0 | 0.00 | 0.00 | 0.00 | 67 | 1009.6 |
| 20260509154538 | 84 | 200 | 2.0 | 9.0 | 0.00 | 0.00 | 0.00 | 70 | 1009.6 |
| 20260509153040 | 84 | 209 | 3.0 | 10.0 | 0.00 | 0.00 | 0.00 | 68 | 1009.6 |
| 20260509151537 | 84 | 219 | 2.0 | 7.0 | 0.00 | 0.00 | 0.00 | 67 | 1009.8 |
| 20260509150055 | 84 | 224 | 2.0 | 8.0 | 0.00 | 0.00 | 0.00 | 73 | 1009.8 |
| 20260509144630 | 84 | 211 | 2.0 | 6.0 | 0.00 | 0.00 | 0.00 | 75 | 1009.8 |
| 20260509143047 | 83 | 233 | 2.0 | 6.0 | 0.00 | 0.00 | 0.00 | 76 | 1009.9 |
| 20260509141543 | 82 | 0 | 1.0 | 4.0 | 0.00 | 0.00 | 0.00 | 73 | 1009.9 |
| 20260509140038 | 81 | 5 | 0.0 | 4.0 | 0.00 | 0.00 | 0.00 | 77 | 1010.0 |
| 20260509134543 | 81 | 251 | 1.0 | 5.0 | 0.00 | 0.00 | 0.00 | 79 | 1009.9 |
| 20260509133044 | 80 | 0 | 0.0 | 0.0 | 0.00 | 0.00 | 0.00 | 82 | 1009.7 |
| 20260509131542 | 79 | 0 | 0.0 | 0.0 | 0.00 | 0.00 | 0.00 | 85 | 1009.7 |
| 20260509130040 | 78 | 0 | 0.0 | 0.0 | 0.00 | 0.00 | 0.00 | 88 | 1009.6 |